[[{"header":{"parameterUnit":"m.s-1","parameterCategory":2,"la1":30.2991,"la2":30.254,"lo1":-89.0895,"lo2":-89.0444,"dy":0.0017,"dx":0.0017,"nx":28,"ny":28,"refTime":"2023-11-11T03:00:00:Z","depth":"0","parameterNumber":2,"parameterNumberName":"U-component_of_CURRENTS"},"data":[0,0,0,0,0,0,0,0,0,0,0,0,0,0,0,0,0,0,0,0,0,0,0,0,0,0,0,0,0,0,0,0,0,0,0,0,0,0,0,0,0,0,0,0,0,0,0,0,0,0,0,0,0,0,0,0,0,0,-0.232,-0.232,0,-0.2322,-0.2322,-0.2322,-0.2287,-0.2286,-0.2285,-0.2285,-0.2232,-0.2231,-0.2231,0,0,0,0,0,0,0,0,0,0,0,0,0,-0.2268,-0.2269,-0.2319,-0.232,-0.232,-0.2322,-0.2322,-0.2322,-0.2287,-0.2286,-0.2285,-0.2284,-0.2232,-0.2231,-0.223,0,0,0,0,0,0,0,0,0,0,0,0,0,-0.2279,-0.2269,-0.2319,-0.2305,-0.2304,-0.2322,-0.2322,-0.2322,-0.2287,-0.2286,-0.2285,-0.2284,-0.2233,-0.2231,-0.223,-0.2243,0,0,-0.2227,-0.2226,0,0,0,0,0,0,0,0,-0.2279,-0.2281,-0.2307,-0.2306,-0.2305,-0.2306,-0.2285,-0.2294,-0.2287,-0.229,-0.2285,-0.2283,-0.2255,-0.2252,-0.225,-0.224,-0.2238,-0.2227,-0.2226,-0.2225,-0.2225,0,0,0,0,0,0,0,-0.2278,-0.228,-0.2317,-0.2308,-0.2307,-0.2294,-0.2294,-0.2286,-0.2274,-0.229,-0.2288,-0.2294,-0.2253,-0.2252,-0.2249,-0.2237,-0.2227,-0.2226,-0.2225,-0.2224,-0.224,-0.2241,0,0,0,0,0,0,-0.2287,-0.228,-0.2317,-0.2318,-0.2293,-0.2296,-0.2296,-0.2304,-0.2275,-0.2271,-0.2295,-0.2292,-0.2254,-0.225,-0.2247,-0.2267,-0.2225,-0.2224,-0.2224,-0.2239,-0.224,-0.2242,0,0,0,0,0,0,-0.2286,-0.229,-0.2317,-0.2301,-0.2304,-0.2298,-0.2307,-0.2305,-0.2302,-0.2281,-0.2275,-0.2295,-0.2253,-0.2248,-0.2244,-0.2264,-0.2224,-0.2223,-0.2238,-0.224,-0.2241,-0.2302,0,0,0,0,0,0,-0.2284,-0.229,-0.2293,-0.2302,-0.2305,-0.2333,-0.2309,-0.2306,-0.2309,-0.2305,-0.2279,-0.2273,-0.2252,-0.2247,-0.2243,-0.2262,-0.2222,-0.2236,-0.2239,-0.2241,-0.2299,-0.2306,-0.2312,0,0,0,0,0,-0.2282,-0.2296,-0.2293,-0.2298,-0.2313,-0.2335,-0.2335,-0.2325,-0.231,-0.2316,-0.2297,-0.2273,-0.2258,-0.2247,-0.2242,-0.2261,-0.2235,-0.2238,-0.224,-0.2296,-0.2304,-0.2312,0,0,0,0,0,0,-0.2274,-0.2295,-0.2291,-0.231,-0.2324,-0.233,-0.2333,-0.233,-0.2321,-0.2312,-0.2286,-0.228,-0.2285,-0.2267,-0.2255,-0.2273,-0.2244,-0.2246,-0.2287,-0.2295,-0.2301,-0.2302,-0.2221,0,0,0,0,0,-0.2277,-0.2288,-0.2309,-0.2321,-0.233,-0.2331,-0.2337,-0.2335,-0.2333,-0.2327,-0.2312,-0.2297,-0.2295,-0.2289,-0.2281,-0.2289,-0.2271,-0.23,-0.2306,-0.2312,-0.2311,-0.2306,-0.2312,-0.225,-0.225,-0.225,0,0,-0.2275,-0.2288,-0.2293,-0.2319,-0.2323,-0.235,-0.2331,-0.2345,-0.2363,-0.2323,-0.2332,-0.2318,-0.2303,-0.2313,-0.2314,-0.2298,-0.2323,-0.2315,-0.232,-0.2315,-0.231,-0.2316,-0.2321,-0.2252,-0.2251,-0.2251,0,0,-0.2287,-0.2292,-0.231,-0.233,-0.235,-0.2357,-0.2366,-0.2378,-0.2376,-0.2389,-0.2369,-0.2368,-0.2359,-0.2356,-0.2353,-0.2392,-0.2359,-0.2391,-0.2421,-0.2418,-0.2423,-0.2427,-0.242,-0.2423,-0.2392,-0.2392,-0.2392,0,-0.2283,-0.2308,-0.2318,-0.2348,-0.2363,-0.2366,-0.2392,-0.2405,-0.2413,-0.2415,-0.2398,-0.2398,-0.2382,-0.2402,-0.2413,-0.2406,-0.2395,-0.2392,-0.2426,-0.2429,-0.2432,-0.2424,-0.2427,-0.2395,-0.2395,-0.2395,-0.2394,0,-0.2315,-0.2335,-0.2348,-0.2385,-0.2407,-0.2427,-0.2454,-0.2467,-0.2463,-0.2469,-0.2482,-0.2465,-0.246,-0.2465,-0.2448,-0.247,-0.2452,-0.2436,-0.2405,-0.2442,-0.2432,-0.2433,-0.24,-0.2399,-0.2398,-0.2397,0,0,-0.2295,-0.2358,-0.2359,-0.2379,-0.2424,-0.2444,-0.2483,-0.2512,-0.253,-0.2536,-0.2552,-0.2555,-0.2536,-0.2532,-0.2517,-0.2516,-0.2529,-0.2485,-0.2483,-0.2476,-0.2518,-0.2471,-0.2468,-0.2516,-0.2516,-0.2517,-0.2505,0,-0.2307,-0.236,-0.2392,-0.2437,-0.2462,-0.249,-0.2527,-0.2557,-0.2568,-0.2587,-0.2582,-0.2588,-0.2567,-0.256,-0.256,-0.2535,-0.2534,-0.2533,-0.2484,-0.2483,-0.2435,-0.2468,-0.2383,-0.2362,-0.2506,-0.2506,-0.2506,0,-0.2317,-0.235,-0.2395,-0.2454,-0.2468,-0.2499,-0.2542,-0.2578,-0.2617,-0.2624,-0.2636,-0.263,-0.2637,-0.2606,-0.2591,-0.259,-0.2558,-0.2538,-0.2537,-0.2469,-0.2438,-0.2346,-0.2358,-0.2335,-0.2508,-0.2508,-0.2508,0,-0.2275,-0.2346,-0.2374,-0.2396,-0.2472,-0.2491,-0.2525,-0.2575,-0.2602,-0.2639,-0.2654,-0.2665,-0.266,-0.2637,-0.2597,-0.2591,-0.2571,-0.2557,-0.249,-0.2486,-0.239,-0.2377,-0.2369,-0.2543,-0.2543,-0.2543,-0.2543,0,-0.2262,-0.2282,-0.2354,-0.2369,-0.2403,-0.2465,-0.2499,-0.254,-0.2594,-0.2622,-0.2658,-0.2671,-0.2665,-0.2654,-0.2614,-0.2556,-0.2583,-0.2499,-0.2481,-0.241,-0.24,-0.2356,-0.2353,-0.2542,-0.2542,-0.2542,-0.2543,0,-0.22,-0.2252,-0.2287,-0.236,-0.2381,-0.24,-0.2475,-0.2502,-0.2566,-0.2602,-0.2613,-0.2671,-0.2659,-0.2649,-0.2611,-0.2568,-0.2472,-0.2491,-0.2408,-0.2381,-0.2291,-0.2295,-0.2239,-0.218,-0.2418,-0.2417,-0.2416,0,-0.217,-0.218,-0.2254,-0.227,-0.2297,-0.2341,-0.237,-0.246,-0.2494,-0.2589,-0.2598,-0.2627,-0.2619,-0.2574,-0.2512,-0.2448,-0.2419,-0.233,-0.2303,-0.2279,-0.2271,-0.2264,-0.2217,-0.2206,-0.2203,-0.2201,-0.2199,0,-0.2096,-0.212,-0.2146,-0.2181,-0.2212,-0.225,-0.2301,-0.2332,-0.2435,-0.2473,-0.2516,-0.2523,-0.2522,-0.2431,-0.237,-0.2315,-0.2266,-0.2283,-0.2275,-0.212,-0.2092,-0.2028,-0.2229,-0.218,-0.2182,-0.2183,-0.2184,-0.2185,-0.2017,-0.2016,-0.2045,-0.2065,-0.2102,-0.2118,-0.2106,-0.2184,-0.2214,-0.2253,-0.2356,-0.2349,-0.2342,-0.225,-0.2203,-0.21,-0.2125,-0.2032,-0.2044,-0.2045,-0.1968,-0.2129,-0.2049,-0.205,-0.2051,-0.2052,-0.2053,0,-0.1905,-0.1911,-0.1927,-0.1942,-0.1924,-0.1984,-0.2022,-0.1993,-0.1982,-0.2085,-0.2101,-0.2129,-0.2045,-0.2051,-0.1974,-0.1888,-0.1838,-0.1839,-0.1813,-0.178,-0.1931,-0.1902,-0.1763,-0.1763,-0.1763,-0.1763,-0.1764,-0.1764,-0.1844,-0.1808,-0.1815,-0.1737,-0.1746,-0.1672,-0.1657,-0.165,-0.1693,-0.1717,-0.1784,-0.1897,-0.1901,-0.1986,-0.1873,-0.1781,-0.172,-0.1658,-0.1675,-0.1795,-0.1815,-0.1833,-0.1806,-0.165,-0.165,-0.1468,-0.1466,-0.1465]},{"header":{"parameterUnit":"m.s-1","parameterCategory":2,"la1":30.2991,"la2":30.254,"lo1":-89.0895,"lo2":-89.0444,"dy":0.0017,"dx":0.0017,"nx":28,"ny":28,"refTime":"2023-11-11T03:00:00:Z","depth":"0","parameterNumber":3,"parameterNumberName":"V-component_of_CURRENTS"},"data":[0,0,0,0,0,0,0,0,0,0,0,0,0,0,0,0,0,0,0,0,0,0,0,0,0,0,0,0,0,0,0,0,0,0,0,0,0,0,0,0,0,0,0,0,0,0,0,0,0,0,0,0,0,0,0,0,0,0,-0.0398,-0.0397,0,-0.0333,-0.0332,-0.0331,-0.0292,-0.0292,-0.0292,-0.0292,-0.0213,-0.0212,-0.021,0,0,0,0,0,0,0,0,0,0,0,0,0,-0.0443,-0.0443,-0.0398,-0.0397,-0.0397,-0.0333,-0.0332,-0.0331,-0.0292,-0.0292,-0.0292,-0.0292,-0.0214,-0.0212,-0.0209,0,0,0,0,0,0,0,0,0,0,0,0,0,-0.0406,-0.0443,-0.0398,-0.0369,-0.0366,-0.0333,-0.0332,-0.0331,-0.0292,-0.0292,-0.0292,-0.0291,-0.0215,-0.0212,-0.0209,-0.0199,0,0,-0.0201,-0.0199,0,0,0,0,0,0,0,0,-0.0408,-0.0404,-0.0374,-0.0371,-0.0367,-0.032,-0.0319,-0.0286,-0.0292,-0.0321,-0.0292,-0.0291,-0.0248,-0.0242,-0.0232,-0.0195,-0.0192,-0.02,-0.0199,-0.0197,-0.0197,0,0,0,0,0,0,0,-0.0411,-0.0407,-0.0373,-0.0373,-0.0369,-0.0343,-0.0338,-0.0312,-0.0287,-0.0318,-0.0315,-0.0307,-0.0246,-0.0234,-0.0229,-0.019,-0.02,-0.0198,-0.0196,-0.0195,-0.0132,-0.0132,0,0,0,0,0,0,-0.0421,-0.041,-0.0375,-0.0371,-0.0387,-0.0343,-0.0337,-0.0336,-0.0288,-0.028,-0.0307,-0.0305,-0.0239,-0.0233,-0.0226,-0.0208,-0.0197,-0.0195,-0.0193,-0.0132,-0.0132,-0.0132,0,0,0,0,0,0,-0.0422,-0.0418,-0.0378,-0.0388,-0.0381,-0.0342,-0.0341,-0.0335,-0.0322,-0.0279,-0.0271,-0.0302,-0.0239,-0.023,-0.0202,-0.0204,-0.0194,-0.0191,-0.0132,-0.0132,-0.0132,-0.0172,0,0,0,0,0,0,-0.0424,-0.042,-0.0424,-0.0389,-0.038,-0.0364,-0.0341,-0.0334,-0.0317,-0.0314,-0.0272,-0.0264,-0.0238,-0.0206,-0.0199,-0.02,-0.0189,-0.0132,-0.0132,-0.0132,-0.0171,-0.0174,-0.0176,0,0,0,0,0,-0.0426,-0.0434,-0.0425,-0.042,-0.0387,-0.0364,-0.0358,-0.0329,-0.0317,-0.0316,-0.0283,-0.0265,-0.0201,-0.0204,-0.0196,-0.0196,-0.0132,-0.0132,-0.0132,-0.017,-0.0173,-0.0176,0,0,0,0,0,0,-0.0456,-0.043,-0.0419,-0.0419,-0.0396,-0.0357,-0.0354,-0.0333,-0.0306,-0.0303,-0.0263,-0.0253,-0.0231,-0.0207,-0.0211,-0.0178,-0.0165,-0.0163,-0.0196,-0.0199,-0.0202,-0.0213,-0.0186,0,0,0,0,0,-0.0465,-0.0466,-0.0434,-0.0434,-0.0426,-0.0391,-0.0378,-0.0358,-0.0329,-0.0317,-0.0286,-0.0253,-0.0225,-0.0208,-0.0182,-0.0161,-0.0133,-0.0157,-0.0159,-0.0162,-0.0165,-0.0122,-0.0121,-0.0132,-0.0132,-0.0132,0,0,-0.0476,-0.0463,-0.0462,-0.0441,-0.0422,-0.0417,-0.0383,-0.0368,-0.0358,-0.0312,-0.0294,-0.0262,-0.0222,-0.02,-0.0188,-0.018,-0.0143,-0.0162,-0.0164,-0.0166,-0.0122,-0.012,-0.0119,-0.0132,-0.0132,-0.0132,0,0,-0.0504,-0.0489,-0.0501,-0.0484,-0.0459,-0.0438,-0.0436,-0.04,-0.0379,-0.0354,-0.032,-0.0288,-0.0247,-0.0216,-0.0195,-0.0195,-0.016,-0.019,-0.0208,-0.0166,-0.0165,-0.0163,-0.0126,-0.0121,-0.0189,-0.0189,-0.0189,0,-0.052,-0.053,-0.05,-0.0504,-0.0495,-0.0452,-0.046,-0.0431,-0.0389,-0.037,-0.0356,-0.0287,-0.0254,-0.0218,-0.0218,-0.02,-0.0174,-0.0201,-0.017,-0.0168,-0.0165,-0.0128,-0.0122,-0.0191,-0.019,-0.019,-0.019,0,-0.0554,-0.056,-0.0565,-0.0559,-0.0545,-0.0543,-0.0502,-0.0481,-0.0451,-0.0418,-0.0375,-0.0323,-0.0282,-0.0266,-0.0241,-0.021,-0.0195,-0.018,-0.0164,-0.0167,-0.0127,-0.012,-0.0193,-0.0193,-0.0192,-0.0192,0,0,-0.0594,-0.0593,-0.0594,-0.0603,-0.0573,-0.0568,-0.0546,-0.0515,-0.05,-0.0449,-0.0422,-0.0364,-0.0331,-0.0306,-0.0265,-0.0226,-0.0185,-0.0202,-0.0198,-0.0169,-0.0096,-0.0049,-0.0036,-0.0166,-0.0165,-0.0164,-0.0074,0,-0.0633,-0.0664,-0.0643,-0.0666,-0.0679,-0.063,-0.0616,-0.0576,-0.0531,-0.0493,-0.042,-0.0385,-0.0347,-0.0328,-0.0281,-0.0209,-0.0168,-0.0211,-0.0094,-0.0091,-0.0051,-0.0027,0.0011,0.0097,-0.0067,-0.0066,-0.0065,0,-0.0673,-0.069,-0.0723,-0.0725,-0.0725,-0.0727,-0.0694,-0.0673,-0.0599,-0.056,-0.0501,-0.0443,-0.0372,-0.0343,-0.0218,-0.0248,-0.018,-0.0122,-0.0117,-0.0054,-0.003,0.0074,0.0117,0.0225,-0.0054,-0.0055,-0.0055,0,-0.0725,-0.0743,-0.0776,-0.0775,-0.0767,-0.0767,-0.0757,-0.0698,-0.0678,-0.0603,-0.0578,-0.0481,-0.0431,-0.0332,-0.0202,-0.0213,-0.0061,-0.0058,0.0048,0.0052,0.0117,0.0125,0.0276,0.0024,0.0024,0.0024,0.0023,0,-0.0774,-0.0798,-0.0806,-0.0825,-0.086,-0.0825,-0.0836,-0.0803,-0.0748,-0.0724,-0.0624,-0.0576,-0.0426,-0.0315,-0.0209,-0.0047,-0.0061,0.0053,0.0083,0.0104,0.011,0.0233,0.0272,0.0027,0.0026,0.0025,0.0025,0,-0.0825,-0.0828,-0.0869,-0.0881,-0.0889,-0.0912,-0.0906,-0.0903,-0.0842,-0.0804,-0.0783,-0.0643,-0.0486,-0.0326,-0.0149,-0.0051,0.0173,0.0148,0.0163,0.0194,0.0384,0.0419,0.0607,0.0664,0.0276,0.0278,0.0279,0,-0.0855,-0.0881,-0.0923,-0.0955,-0.0967,-0.0992,-0.1007,-0.0961,-0.095,-0.0839,-0.0825,-0.0661,-0.0531,-0.0243,-0.003,0.0183,0.0261,0.0327,0.0316,0.0414,0.0475,0.0502,0.0537,0.0387,0.0389,0.0391,0.0392,0,-0.0911,-0.0921,-0.0958,-0.103,-0.1065,-0.1097,-0.1111,-0.1116,-0.1041,-0.0983,-0.0871,-0.0753,-0.0448,-0.0167,0.0121,0.0247,0.042,0.037,0.0476,0.0583,0.062,0.0682,0.03,0.0409,0.0407,0.0406,0.0405,0.0404,-0.0944,-0.0991,-0.1039,-0.1101,-0.1146,-0.1186,-0.1204,-0.119,-0.1155,-0.1046,-0.0915,-0.0711,-0.0289,0.0137,0.0284,0.0606,0.0564,0.0688,0.0724,0.0744,0.0801,0.0453,0.0591,0.0591,0.059,0.059,0.059,0,-0.0987,-0.1039,-0.1108,-0.1179,-0.123,-0.1234,-0.1257,-0.1242,-0.1195,-0.1055,-0.0909,-0.0448,-0.004,0.0328,0.0802,0.0953,0.0973,0.1021,0.1068,0.1086,0.0792,0.0798,0.0982,0.0982,0.0982,0.0982,0.0982,0.0982,-0.1013,-0.1088,-0.1127,-0.1225,-0.1271,-0.1309,-0.1314,-0.1276,-0.1177,-0.0933,-0.0676,-0.0458,0.0096,0.0867,0.1275,0.129,0.139,0.139,0.1434,0.1227,0.1198,0.117,0.1187,0.145,0.1451,0.1719,0.1722,0.1724]}],[{"header":{"parameterUnit":"m.s-1","parameterCategory":2,"la1":30.2991,"la2":30.254,"lo1":-89.0895,"lo2":-89.0444,"dy":0.0017,"dx":0.0017,"nx":28,"ny":28,"refTime":"2023-11-11T03:00:00:Z","depth":"2","parameterNumber":2,"parameterNumberName":"U-component_of_CURRENTS"},"data":[0,0,0,0,0,0,0,0,0,0,0,0,0,0,0,0,0,0,0,0,0,0,0,0,0,0,0,0,0,0,0,0,0,0,0,0,0,0,0,0,0,0,0,0,0,0,0,0,0,0,0,0,0,0,0,0,0,0,-0.2123,-0.2124,0,-0.2128,-0.2128,-0.2127,-0.2101,-0.21,-0.21,-0.2099,-0.2061,-0.206,-0.206,0,0,0,0,0,0,0,0,0,0,0,0,0,-0.2078,-0.2078,-0.2123,-0.2124,-0.2124,-0.2128,-0.2128,-0.2127,-0.2101,-0.21,-0.21,-0.2099,-0.2061,-0.206,-0.206,0,0,0,0,0,0,0,0,0,0,0,0,0,-0.2088,-0.2079,-0.2123,-0.2113,-0.2113,-0.2128,-0.2128,-0.2127,-0.2101,-0.21,-0.2099,-0.2099,-0.2061,-0.206,-0.206,-0.2068,0,0,-0.2057,-0.2057,0,0,0,0,0,0,0,0,-0.2088,-0.209,-0.2115,-0.2114,-0.2114,-0.2116,-0.2098,-0.2107,-0.2101,-0.2102,-0.2099,-0.2098,-0.2078,-0.2076,-0.2074,-0.2067,-0.2065,-0.2057,-0.2056,-0.2056,-0.2056,0,0,0,0,0,0,0,-0.2087,-0.2089,-0.2122,-0.2115,-0.2115,-0.2104,-0.2105,-0.2099,-0.2091,-0.2102,-0.2101,-0.2107,-0.2077,-0.2075,-0.2073,-0.2064,-0.2057,-0.2056,-0.2056,-0.2055,-0.2077,-0.2078,0,0,0,0,0,0,-0.2095,-0.2089,-0.2122,-0.2122,-0.2102,-0.2106,-0.2106,-0.2113,-0.2092,-0.2089,-0.2107,-0.2105,-0.2077,-0.2074,-0.2071,-0.2097,-0.2056,-0.2055,-0.2055,-0.2076,-0.2078,-0.2079,0,0,0,0,0,0,-0.2094,-0.2098,-0.2122,-0.2108,-0.2111,-0.2108,-0.2116,-0.2114,-0.2115,-0.2097,-0.2092,-0.2111,-0.2076,-0.2073,-0.2073,-0.2094,-0.2055,-0.2054,-0.2075,-0.2077,-0.2078,-0.2136,0,0,0,0,0,0,-0.2092,-0.2097,-0.2101,-0.2109,-0.2112,-0.2138,-0.2117,-0.2114,-0.2121,-0.2118,-0.2098,-0.2094,-0.2075,-0.2075,-0.2073,-0.2092,-0.2053,-0.2074,-0.2076,-0.2078,-0.2133,-0.214,-0.2146,0,0,0,0,0,-0.2091,-0.2103,-0.2102,-0.2106,-0.2119,-0.2139,-0.2139,-0.2132,-0.2122,-0.2129,-0.2115,-0.2095,-0.2087,-0.2075,-0.2072,-0.2092,-0.2073,-0.2075,-0.2078,-0.213,-0.2139,-0.2146,0,0,0,0,0,0,-0.2085,-0.2102,-0.21,-0.2117,-0.213,-0.2135,-0.214,-0.2139,-0.2135,-0.2128,-0.2106,-0.2102,-0.2112,-0.2096,-0.2084,-0.2105,-0.2077,-0.2079,-0.2119,-0.2126,-0.2132,-0.2133,-0.2053,0,0,0,0,0,-0.2087,-0.2098,-0.2116,-0.2127,-0.2136,-0.2139,-0.2145,-0.2145,-0.2145,-0.2142,-0.2131,-0.212,-0.2121,-0.2118,-0.2112,-0.2123,-0.2106,-0.2135,-0.2141,-0.2146,-0.2146,-0.2142,-0.2148,-0.2087,-0.2087,-0.2087,0,0,-0.2087,-0.2098,-0.2103,-0.2126,-0.2131,-0.2156,-0.214,-0.2155,-0.2173,-0.2139,-0.2152,-0.2142,-0.2129,-0.2142,-0.2145,-0.213,-0.2157,-0.215,-0.2154,-0.215,-0.2145,-0.2151,-0.2156,-0.2089,-0.2088,-0.2088,0,0,-0.2097,-0.2103,-0.2119,-0.2138,-0.2158,-0.2165,-0.2174,-0.2188,-0.2189,-0.2205,-0.2188,-0.219,-0.2187,-0.2185,-0.2183,-0.2221,-0.2191,-0.2222,-0.2252,-0.225,-0.2254,-0.2258,-0.2251,-0.2254,-0.2224,-0.2224,-0.2224,0,-0.2096,-0.2117,-0.2126,-0.2154,-0.2168,-0.2174,-0.2199,-0.2213,-0.2224,-0.2228,-0.2215,-0.2221,-0.2209,-0.2229,-0.2242,-0.2236,-0.2225,-0.2224,-0.2257,-0.2261,-0.2264,-0.2255,-0.2257,-0.2227,-0.2227,-0.2227,-0.2226,0,-0.2124,-0.2143,-0.2155,-0.219,-0.2211,-0.223,-0.2257,-0.2273,-0.2273,-0.2281,-0.2298,-0.2285,-0.2285,-0.229,-0.2275,-0.2299,-0.2282,-0.2267,-0.2237,-0.2273,-0.2262,-0.2263,-0.2232,-0.2231,-0.223,-0.2229,0,0,-0.2107,-0.2163,-0.2165,-0.2184,-0.2228,-0.2246,-0.2285,-0.2314,-0.2334,-0.2344,-0.2363,-0.237,-0.2356,-0.2354,-0.2342,-0.2341,-0.2356,-0.2314,-0.2313,-0.2305,-0.2347,-0.2299,-0.2296,-0.2345,-0.2346,-0.2346,-0.2333,0,-0.2119,-0.2166,-0.2196,-0.2238,-0.2261,-0.229,-0.2326,-0.2357,-0.2371,-0.2393,-0.2392,-0.2402,-0.2385,-0.2382,-0.2383,-0.2362,-0.2361,-0.236,-0.2314,-0.2313,-0.2264,-0.2296,-0.212,-0.209,-0.2333,-0.2334,-0.2334,0,-0.2128,-0.2158,-0.2199,-0.2254,-0.2267,-0.2298,-0.2342,-0.2378,-0.2419,-0.2429,-0.2445,-0.2442,-0.2452,-0.2425,-0.2414,-0.2413,-0.2384,-0.2366,-0.2364,-0.2298,-0.2267,-0.2091,-0.2082,-0.2335,-0.2335,-0.2335,-0.2335,0,-0.2089,-0.2154,-0.2181,-0.2202,-0.2272,-0.2293,-0.2327,-0.2378,-0.2405,-0.2446,-0.2462,-0.2477,-0.2477,-0.2456,-0.2421,-0.2416,-0.2399,-0.2384,-0.2317,-0.2313,-0.2141,-0.2122,-0.2371,-0.2371,-0.2371,-0.2371,-0.2371,0,-0.2078,-0.2097,-0.2164,-0.2179,-0.2213,-0.2272,-0.2308,-0.2348,-0.2403,-0.2429,-0.2469,-0.2482,-0.2483,-0.2474,-0.2437,-0.2381,-0.241,-0.2325,-0.2308,-0.2158,-0.2141,-0.2334,-0.233,-0.237,-0.2371,-0.2371,-0.2371,0,-0.2022,-0.207,-0.2103,-0.2172,-0.2193,-0.2214,-0.2287,-0.2314,-0.2379,-0.2414,-0.2427,-0.2484,-0.2475,-0.2469,-0.2435,-0.2394,-0.2348,-0.2318,-0.2144,-0.2107,-0.2261,-0.2261,-0.2246,-0.2244,-0.2243,-0.2242,-0.2241,0,-0.1996,-0.2005,-0.2075,-0.2091,-0.2118,-0.2162,-0.2191,-0.2278,-0.2309,-0.2401,-0.2408,-0.244,-0.2429,-0.2388,-0.2322,-0.2257,-0.2307,-0.2061,-0.2022,-0.2264,-0.225,-0.2251,-0.2252,-0.1817,-0.1812,-0.1809,-0.1806,0,-0.1928,-0.1953,-0.1976,-0.201,-0.2041,-0.2075,-0.2124,-0.2152,-0.2249,-0.2284,-0.232,-0.2324,-0.2317,-0.2176,-0.2118,-0.2054,-0.2061,-0.1987,-0.2271,-0.1886,-0.1861,-0.1847,-0.1861,-0.1774,-0.1777,-0.1779,-0.1781,-0.1782,-0.1858,-0.1857,-0.1884,-0.1904,-0.1939,-0.1951,-0.1936,-0.2005,-0.2028,-0.2049,-0.2148,-0.2098,-0.2092,-0.1916,-0.1817,-0.1746,-0.1887,-0.1786,-0.1796,-0.181,-0.1773,-0.1748,-0.1632,-0.1634,-0.1636,-0.1638,-0.1639,0,-0.1754,-0.1761,-0.1775,-0.1788,-0.1769,-0.1827,-0.1856,-0.1817,-0.1795,-0.1854,-0.1857,-0.1678,-0.1596,-0.1595,-0.1441,-0.1415,-0.1388,-0.1347,-0.1301,-0.1335,-0.1364,-0.1304,-0.1038,-0.1036,-0.1034,-0.1033,0,0,-0.1698,-0.1664,-0.1667,-0.1593,-0.1601,-0.1527,-0.1508,-0.1479,-0.1485,-0.1427,-0.1407,-0.1524,-0.1564,-0.13,-0.1237,-0.1113,-0.121,-0.1059,-0.1543,-0.1523,-0.155,-0.1622,-0.1568,0,0,0,0,0]},{"header":{"parameterUnit":"m.s-1","parameterCategory":2,"la1":30.2991,"la2":30.254,"lo1":-89.0895,"lo2":-89.0444,"dy":0.0017,"dx":0.0017,"nx":28,"ny":28,"refTime":"2023-11-11T03:00:00:Z","depth":"2","parameterNumber":3,"parameterNumberName":"V-component_of_CURRENTS"},"data":[0,0,0,0,0,0,0,0,0,0,0,0,0,0,0,0,0,0,0,0,0,0,0,0,0,0,0,0,0,0,0,0,0,0,0,0,0,0,0,0,0,0,0,0,0,0,0,0,0,0,0,0,0,0,0,0,0,0,-0.0272,-0.0271,0,-0.021,-0.0209,-0.0208,-0.0173,-0.0173,-0.0173,-0.0173,-0.01,-0.0099,-0.0097,0,0,0,0,0,0,0,0,0,0,0,0,0,-0.0312,-0.0312,-0.0272,-0.0271,-0.027,-0.021,-0.0209,-0.0208,-0.0173,-0.0173,-0.0173,-0.0173,-0.0101,-0.0099,-0.0097,0,0,0,0,0,0,0,0,0,0,0,0,0,-0.0277,-0.0312,-0.0272,-0.0245,-0.0242,-0.021,-0.0209,-0.0208,-0.0173,-0.0173,-0.0173,-0.0172,-0.0102,-0.0099,-0.0096,-0.0085,0,0,-0.0088,-0.0087,0,0,0,0,0,0,0,0,-0.028,-0.0276,-0.025,-0.0247,-0.0243,-0.0198,-0.0196,-0.0166,-0.0173,-0.02,-0.0173,-0.0172,-0.0132,-0.0127,-0.0116,-0.0081,-0.0078,-0.0088,-0.0086,-0.0085,-0.0084,0,0,0,0,0,0,0,-0.0282,-0.0278,-0.0248,-0.0249,-0.0245,-0.022,-0.0215,-0.019,-0.0168,-0.0197,-0.0195,-0.0187,-0.013,-0.0119,-0.0114,-0.0077,-0.0088,-0.0086,-0.0084,-0.0083,-0.0024,-0.0024,0,0,0,0,0,0,-0.0292,-0.0281,-0.0249,-0.0246,-0.0261,-0.0219,-0.0214,-0.0213,-0.0169,-0.0161,-0.0187,-0.0186,-0.0124,-0.0118,-0.0112,-0.0096,-0.0085,-0.0083,-0.0081,-0.0024,-0.0024,-0.0024,0,0,0,0,0,0,-0.0293,-0.029,-0.0252,-0.0261,-0.0254,-0.0219,-0.0219,-0.0212,-0.0201,-0.0161,-0.0154,-0.0183,-0.0123,-0.0116,-0.0089,-0.0093,-0.0081,-0.0079,-0.0024,-0.0024,-0.0024,-0.0063,0,0,0,0,0,0,-0.0294,-0.0291,-0.0295,-0.0262,-0.0254,-0.0239,-0.0218,-0.0211,-0.0197,-0.0194,-0.0155,-0.0148,-0.0123,-0.0094,-0.0087,-0.0089,-0.0077,-0.0024,-0.0024,-0.0024,-0.0062,-0.0064,-0.0067,0,0,0,0,0,-0.0296,-0.0305,-0.0296,-0.0292,-0.0262,-0.024,-0.0234,-0.0207,-0.0197,-0.0196,-0.0166,-0.0149,-0.0089,-0.0091,-0.0083,-0.0085,-0.0024,-0.0024,-0.0024,-0.0061,-0.0064,-0.0067,0,0,0,0,0,0,-0.0325,-0.0301,-0.0291,-0.0292,-0.027,-0.0234,-0.0231,-0.0211,-0.0187,-0.0185,-0.0147,-0.0137,-0.0117,-0.0095,-0.0098,-0.0068,-0.0055,-0.0053,-0.0085,-0.0088,-0.0091,-0.0101,-0.0075,0,0,0,0,0,-0.0334,-0.0335,-0.0305,-0.0307,-0.0299,-0.0266,-0.0254,-0.0237,-0.0209,-0.0198,-0.0169,-0.0139,-0.0111,-0.0096,-0.0071,-0.0052,-0.0024,-0.0048,-0.0051,-0.0053,-0.0056,-0.0013,-0.0012,-0.0024,-0.0024,-0.0024,0,0,-0.0345,-0.0333,-0.0333,-0.0313,-0.0296,-0.0291,-0.0259,-0.0246,-0.0237,-0.0194,-0.0177,-0.0148,-0.0109,-0.0089,-0.0078,-0.007,-0.0035,-0.0053,-0.0056,-0.0057,-0.0013,-0.0012,-0.001,-0.0024,-0.0024,-0.0024,0,0,-0.0372,-0.0359,-0.037,-0.0354,-0.0332,-0.0312,-0.0311,-0.0278,-0.0258,-0.0235,-0.0203,-0.0173,-0.0135,-0.0105,-0.0085,-0.0085,-0.0052,-0.0081,-0.0099,-0.0057,-0.0056,-0.0054,-0.0018,-0.0013,-0.008,-0.008,-0.008,0,-0.0387,-0.0397,-0.0369,-0.0374,-0.0365,-0.0326,-0.0334,-0.0306,-0.0268,-0.0249,-0.0238,-0.0173,-0.0142,-0.0106,-0.0107,-0.0091,-0.0065,-0.0091,-0.006,-0.0058,-0.0056,-0.0019,-0.0013,-0.0082,-0.0082,-0.0082,-0.0081,0,-0.042,-0.0426,-0.0431,-0.0426,-0.0412,-0.0412,-0.0373,-0.0354,-0.0327,-0.0296,-0.0256,-0.0207,-0.0168,-0.0153,-0.013,-0.01,-0.0085,-0.0071,-0.0054,-0.0057,-0.0018,-0.0011,-0.0085,-0.0084,-0.0083,-0.0083,0,0,-0.046,-0.0457,-0.0459,-0.0467,-0.044,-0.0435,-0.0415,-0.0385,-0.0371,-0.0323,-0.0297,-0.0244,-0.0215,-0.019,-0.0152,-0.0113,-0.0074,-0.0091,-0.0088,-0.0058,0.0015,0.0053,0.0064,-0.0055,-0.0054,-0.0053,0.0035,0,-0.0496,-0.0525,-0.0505,-0.0527,-0.0539,-0.0492,-0.0479,-0.0442,-0.04,-0.0363,-0.0295,-0.0263,-0.0228,-0.0211,-0.0166,-0.0096,-0.0057,-0.01,0.0016,0.0019,0.0051,0.0073,0.0059,0.0139,0.0043,0.0044,0.0045,0,-0.0535,-0.0551,-0.0581,-0.0582,-0.0581,-0.0585,-0.0554,-0.0533,-0.0463,-0.0427,-0.0371,-0.0317,-0.0249,-0.0223,-0.0102,-0.0131,-0.0067,-0.0011,-0.0005,0.0048,0.0071,0.0127,0.0156,0.0057,0.0056,0.0055,0.0054,0,-0.0585,-0.0601,-0.0631,-0.063,-0.0622,-0.0623,-0.0614,-0.0559,-0.0539,-0.0468,-0.0445,-0.0352,-0.0305,-0.0209,-0.0087,-0.0096,0.005,0.0054,0.015,0.0153,0.0174,0.0178,0.0135,0.0135,0.0134,0.0134,0.0134,0,-0.0632,-0.0655,-0.0662,-0.0679,-0.0713,-0.0679,-0.069,-0.066,-0.0607,-0.0585,-0.049,-0.0446,-0.03,-0.0193,-0.0091,0.0061,0.0051,0.0155,0.0184,0.016,0.0161,0.0114,0.011,0.0138,0.0137,0.0136,0.0136,0,-0.0682,-0.0684,-0.0722,-0.0733,-0.0742,-0.0765,-0.0759,-0.0757,-0.0699,-0.0664,-0.0644,-0.0511,-0.0362,-0.0207,-0.0036,0.0057,0.0194,0.0245,0.0209,0.0232,0.0266,0.0259,0.0359,0.0361,0.0363,0.0365,0.0366,0,-0.0712,-0.0736,-0.0775,-0.0807,-0.0819,-0.0844,-0.0858,-0.0815,-0.0803,-0.0699,-0.0686,-0.0532,-0.041,-0.0135,0.0061,0.0263,0.0251,0.0356,0.0339,0.0273,0.0292,0.0282,0.0273,0.0349,0.035,0.0351,0.0352,0,-0.0766,-0.0777,-0.0811,-0.0881,-0.0916,-0.0944,-0.0958,-0.0962,-0.089,-0.0838,-0.0734,-0.0624,-0.034,-0.01,0.017,0.0281,0.0325,0.0381,0.0336,0.0293,0.0272,0.0287,0.0277,0.036,0.0359,0.0358,0.0358,0.0358,-0.0802,-0.0846,-0.0891,-0.0952,-0.0994,-0.1031,-0.1048,-0.1032,-0.1,-0.0895,-0.0778,-0.0587,-0.0337,0.0053,0.0245,0.042,0.0411,0.0451,0.0445,0.0439,0.0421,0.0404,0.0513,0.0513,0.0513,0.0513,0.0513,0,-0.0845,-0.0893,-0.096,-0.1027,-0.1075,-0.108,-0.1099,-0.1079,-0.1036,-0.0904,-0.0769,-0.0486,-0.0202,0.0044,0.0333,0.0504,0.0479,0.0524,0.0459,0.0452,0.0445,0.0424,0.0518,0.0518,0.0519,0.0519,0,0,-0.087,-0.0941,-0.0977,-0.1071,-0.1117,-0.1151,-0.1156,-0.1108,-0.1012,-0.0872,-0.072,-0.0498,-0.0189,0.0015,0.0241,0.0387,0.0369,0.0397,0.0379,0.0271,0.0262,0.0396,0.0355,0,0,0,0,0]}],[{"header":{"parameterUnit":"m.s-1","parameterCategory":2,"la1":30.2991,"la2":30.254,"lo1":-89.0895,"lo2":-89.0444,"dy":0.0017,"dx":0.0017,"nx":28,"ny":28,"refTime":"2023-11-11T03:00:00:Z","depth":"4","parameterNumber":2,"parameterNumberName":"U-component_of_CURRENTS"},"data":[0,0,0,0,0,0,0,0,0,0,0,0,0,0,0,0,0,0,0,0,0,0,0,0,0,0,0,0,0,0,0,0,0,0,0,0,0,0,0,0,0,0,0,0,0,0,0,0,0,0,0,0,0,0,0,0,0,0,-0.1487,-0.1487,0,-0.1528,-0.1529,-0.1529,-0.1556,-0.1557,-0.1557,-0.1557,-0.1599,-0.1599,-0.16,0,0,0,0,0,0,0,0,0,0,0,0,0,-0.1424,-0.1425,-0.1487,-0.1487,-0.1488,-0.1528,-0.1529,-0.1529,-0.1556,-0.1557,-0.1557,-0.1557,-0.1598,-0.1599,-0.16,0,0,0,0,0,0,0,0,0,0,0,0,0,-0.1455,-0.1425,-0.1486,-0.1508,-0.151,-0.1528,-0.1529,-0.1529,-0.1556,-0.1557,-0.1557,-0.1558,-0.1598,-0.1599,-0.16,-0.1597,0,0,-0.1604,-0.1604,0,0,0,0,0,0,0,0,-0.1453,-0.1457,-0.1504,-0.1506,-0.1509,-0.1539,-0.1522,-0.1553,-0.1556,-0.1537,-0.1557,-0.1558,-0.158,-0.1582,-0.1586,-0.1599,-0.1601,-0.1604,-0.1605,-0.1605,-0.1605,0,0,0,0,0,0,0,-0.1451,-0.1455,-0.1501,-0.1505,-0.1508,-0.1513,-0.1518,-0.1528,-0.1553,-0.1538,-0.1541,-0.1548,-0.1581,-0.1585,-0.1587,-0.1601,-0.1604,-0.1605,-0.1606,-0.1606,-0.1683,-0.1685,0,0,0,0,0,0,-0.145,-0.1453,-0.15,-0.1503,-0.1484,-0.1514,-0.1519,-0.1528,-0.1553,-0.1558,-0.1548,-0.155,-0.1583,-0.1586,-0.1589,-0.1654,-0.1605,-0.1606,-0.1607,-0.1682,-0.1684,-0.1685,0,0,0,0,0,0,-0.1448,-0.1453,-0.1498,-0.148,-0.1487,-0.1515,-0.1524,-0.1528,-0.1559,-0.1561,-0.1565,-0.1578,-0.1583,-0.1587,-0.1622,-0.1653,-0.1607,-0.1608,-0.1681,-0.1683,-0.1685,-0.174,0,0,0,0,0,0,-0.1446,-0.1452,-0.1469,-0.148,-0.1488,-0.1528,-0.1523,-0.1529,-0.1562,-0.1565,-0.1587,-0.159,-0.1584,-0.162,-0.1623,-0.1654,-0.1609,-0.1679,-0.1681,-0.1684,-0.1736,-0.1744,-0.175,0,0,0,0,0,-0.1444,-0.1461,-0.147,-0.1476,-0.1506,-0.1529,-0.1533,-0.1553,-0.1563,-0.1582,-0.1599,-0.1591,-0.1639,-0.1622,-0.1625,-0.1657,-0.1678,-0.1681,-0.1684,-0.1733,-0.1742,-0.175,0,0,0,0,0,0,-0.1443,-0.1466,-0.1475,-0.15,-0.1522,-0.1535,-0.1556,-0.1569,-0.1597,-0.1607,-0.1607,-0.1611,-0.1653,-0.1648,-0.163,-0.1687,-0.1657,-0.1661,-0.1694,-0.1702,-0.1709,-0.1703,-0.161,0,0,0,0,0,-0.145,-0.147,-0.1491,-0.1513,-0.1526,-0.1547,-0.1563,-0.1579,-0.1599,-0.1613,-0.1628,-0.1646,-0.1663,-0.1678,-0.169,-0.1721,-0.1704,-0.1744,-0.1751,-0.1756,-0.1754,-0.1755,-0.1761,-0.1695,-0.1695,-0.1695,0,0,-0.1457,-0.1472,-0.1485,-0.1515,-0.1533,-0.1561,-0.1558,-0.1592,-0.1623,-0.1612,-0.1663,-0.1671,-0.1677,-0.1712,-0.173,-0.1715,-0.1768,-0.176,-0.1765,-0.176,-0.1759,-0.1765,-0.1771,-0.1697,-0.1697,-0.1697,0,0,-0.1473,-0.1494,-0.1515,-0.1539,-0.1574,-0.1587,-0.1605,-0.1635,-0.1658,-0.1701,-0.1702,-0.1729,-0.1761,-0.1768,-0.1774,-0.1825,-0.1803,-0.1837,-0.1868,-0.187,-0.1875,-0.1879,-0.187,-0.1873,-0.1841,-0.1841,-0.1841,0,-0.1483,-0.1508,-0.1526,-0.1555,-0.1579,-0.1604,-0.1635,-0.1663,-0.1704,-0.1723,-0.1728,-0.1776,-0.1784,-0.1819,-0.1838,-0.1841,-0.1833,-0.1837,-0.1877,-0.1881,-0.1884,-0.1874,-0.1876,-0.1844,-0.1844,-0.1843,-0.1843,0,-0.1507,-0.154,-0.1557,-0.1599,-0.1629,-0.166,-0.1698,-0.1735,-0.1765,-0.1785,-0.1835,-0.1845,-0.1869,-0.1883,-0.1877,-0.1912,-0.1896,-0.1884,-0.1854,-0.1894,-0.1881,-0.1882,-0.1848,-0.1847,-0.1846,-0.1846,0,0,-0.1493,-0.156,-0.1569,-0.1597,-0.1655,-0.1679,-0.1736,-0.1781,-0.1817,-0.186,-0.1897,-0.1933,-0.1937,-0.1944,-0.1945,-0.1951,-0.1972,-0.1933,-0.1932,-0.1919,-0.1971,-0.185,-0.184,-0.1969,-0.1969,-0.197,-0.1953,0,-0.1507,-0.156,-0.1595,-0.1655,-0.1683,-0.1731,-0.1779,-0.1828,-0.1866,-0.1909,-0.193,-0.1966,-0.1962,-0.1976,-0.1985,-0.1975,-0.1979,-0.1977,-0.1938,-0.1936,-0.182,-0.1839,-0.1971,-0.1954,-0.1954,-0.1954,-0.1955,0,-0.151,-0.1547,-0.1605,-0.1677,-0.1696,-0.1742,-0.1813,-0.186,-0.1923,-0.1952,-0.1989,-0.2003,-0.2031,-0.2016,-0.202,-0.2021,-0.2001,-0.1988,-0.1987,-0.1853,-0.1818,-0.1905,-0.1957,-0.1957,-0.1957,-0.1956,-0.1956,0,-0.1468,-0.155,-0.1595,-0.1623,-0.1711,-0.1752,-0.1801,-0.1873,-0.191,-0.1977,-0.2004,-0.2038,-0.2057,-0.2046,-0.2027,-0.2027,-0.2014,-0.2007,-0.188,-0.1872,-0.1961,-0.1957,-0.2001,-0.2001,-0.2001,-0.2001,-0.2001,0,-0.1447,-0.1487,-0.1585,-0.161,-0.1669,-0.174,-0.1803,-0.1856,-0.1927,-0.1959,-0.2021,-0.2034,-0.2067,-0.2063,-0.2037,-0.1955,-0.2021,-0.1879,-0.1856,-0.1986,-0.1985,-0.1962,-0.1958,-0.2,-0.2001,-0.2001,-0.2001,0,-0.1386,-0.1453,-0.1512,-0.1615,-0.1649,-0.1692,-0.1795,-0.183,-0.1914,-0.1954,-0.1975,-0.2038,-0.2028,-0.2039,-0.2019,-0.1951,-0.1895,-0.185,-0.1986,-0.1973,-0.1751,-0.175,-0.1702,-0.1697,-0.1693,-0.169,-0.1688,0,-0.1354,-0.138,-0.1497,-0.1532,-0.1583,-0.1659,-0.1703,-0.1805,-0.1834,-0.193,-0.1928,-0.1968,-0.1989,-0.1861,-0.189,-0.1827,-0.1805,-0.1767,-0.1758,-0.1736,-0.172,-0.1725,-0.1729,-0.1682,-0.1681,-0.168,-0.1679,0,-0.1286,-0.1343,-0.1389,-0.1457,-0.1517,-0.1569,-0.1637,-0.1649,-0.1751,-0.1851,-0.1825,-0.1807,-0.1797,-0.1771,-0.1737,-0.1693,-0.1785,-0.1727,-0.1735,-0.1726,-0.1711,-0.17,-0.1708,-0.1666,-0.1667,-0.1669,-0.1669,0,-0.1231,-0.1247,-0.1312,-0.1357,-0.1427,-0.1439,-0.15,-0.1525,-0.1566,-0.168,-0.1665,-0.1707,-0.1776,-0.1699,-0.1664,-0.1615,-0.159,-0.1531,-0.1548,-0.1563,-0.1524,-0.1485,-0.1342,0,0,0,0,0,-0.1164,-0.1164,-0.1201,-0.1242,-0.1305,-0.1334,-0.1431,-0.1493,-0.1602,-0.154,-0.1597,-0.1576,-0.1531,-0.1555,-0.1472,-0.1597,-0.1594,-0.1493,-0.1537,-0.1593,-0.1608,-0.1574,0,0,0,0,0,0,-0.1118,-0.1148,-0.1156,-0.1121,-0.1125,-0.1171,-0.1222,-0.1304,-0.128,-0.14,-0.1383,-0.1471,-0.145,-0.1545,-0.1433,-0.144,-0.1432,-0.1531,-0.1526,-0.1584,-0.1598,-0.161,-0.158,0,0,0,0,0]},{"header":{"parameterUnit":"m.s-1","parameterCategory":2,"la1":30.2991,"la2":30.254,"lo1":-89.0895,"lo2":-89.0444,"dy":0.0017,"dx":0.0017,"nx":28,"ny":28,"refTime":"2023-11-11T03:00:00:Z","depth":"4","parameterNumber":3,"parameterNumberName":"V-component_of_CURRENTS"},"data":[0,0,0,0,0,0,0,0,0,0,0,0,0,0,0,0,0,0,0,0,0,0,0,0,0,0,0,0,0,0,0,0,0,0,0,0,0,0,0,0,0,0,0,0,0,0,0,0,0,0,0,0,0,0,0,0,0,0,-0.0145,-0.0145,0,-0.0104,-0.0104,-0.0103,-0.0079,-0.0079,-0.0079,-0.0079,-0.0025,-0.0023,-0.0022,0,0,0,0,0,0,0,0,0,0,0,0,0,-0.0165,-0.0165,-0.0145,-0.0145,-0.0144,-0.0104,-0.0103,-0.0103,-0.0079,-0.0079,-0.0079,-0.0079,-0.0025,-0.0023,-0.0022,0,0,0,0,0,0,0,0,0,0,0,0,0,-0.0143,-0.0165,-0.0145,-0.0127,-0.0125,-0.0104,-0.0103,-0.0103,-0.0079,-0.0079,-0.0079,-0.0079,-0.0026,-0.0024,-0.0022,-0.0012,0,0,-0.0015,-0.0015,0,0,0,0,0,0,0,0,-0.0145,-0.0143,-0.0131,-0.0129,-0.0126,-0.0097,-0.009,-0.0072,-0.0079,-0.0097,-0.0079,-0.0079,-0.0048,-0.0044,-0.0036,-0.0009,-0.0007,-0.0015,-0.0014,-0.0013,-0.0013,0,0,0,0,0,0,0,-0.0146,-0.0144,-0.0129,-0.013,-0.0127,-0.0108,-0.0105,-0.0087,-0.0073,-0.0095,-0.0093,-0.0089,-0.0046,-0.0039,-0.0035,-0.0006,-0.0015,-0.0013,-0.0012,-0.0011,0.0032,0.0032,0,0,0,0,0,0,-0.0153,-0.0146,-0.013,-0.0128,-0.0135,-0.0108,-0.0105,-0.0106,-0.0074,-0.0069,-0.0089,-0.0088,-0.0042,-0.0037,-0.0033,-0.0023,-0.0013,-0.0011,-0.001,0.0032,0.0032,0.0032,0,0,0,0,0,0,-0.0154,-0.0153,-0.0132,-0.0135,-0.0131,-0.0108,-0.011,-0.0106,-0.0099,-0.0069,-0.0064,-0.0087,-0.0042,-0.0036,-0.0017,-0.002,-0.001,-0.0008,0.0032,0.0032,0.0032,0.0,0,0,0,0,0,0,-0.0155,-0.0153,-0.0159,-0.0136,-0.0131,-0.0125,-0.011,-0.0105,-0.0097,-0.0095,-0.0066,-0.006,-0.0041,-0.002,-0.0015,-0.0017,-0.0007,0.0032,0.0032,0.0032,0.0002,-0.0001,-0.0003,0,0,0,0,0,-0.0156,-0.0164,-0.0159,-0.0157,-0.0139,-0.0126,-0.0122,-0.0104,-0.0097,-0.0097,-0.0075,-0.0061,-0.0017,-0.0018,-0.0012,-0.0014,0.0032,0.0032,0.0032,0.0002,-0.0,-0.0003,0,0,0,0,0,0,-0.0175,-0.0162,-0.0156,-0.016,-0.0147,-0.0122,-0.0122,-0.0108,-0.0091,-0.009,-0.006,-0.0053,-0.004,-0.0022,-0.0024,-0.0002,0.0009,0.001,-0.0016,-0.0018,-0.002,-0.0028,-0.0005,0,0,0,0,0,-0.0182,-0.0187,-0.0167,-0.0172,-0.0168,-0.0146,-0.0139,-0.0127,-0.0107,-0.01,-0.0079,-0.0056,-0.0035,-0.0023,-0.0005,0.0009,0.0034,0.0012,0.0009,0.0007,0.0005,0.0044,0.0046,0.0032,0.0032,0.0032,0,0,-0.019,-0.0184,-0.0187,-0.0176,-0.0166,-0.0165,-0.0141,-0.0135,-0.013,-0.0096,-0.0087,-0.0064,-0.0034,-0.0019,-0.0011,-0.0004,0.0025,0.0007,0.0005,0.0004,0.0044,0.0046,0.0047,0.0031,0.0031,0.0031,0,0,-0.0211,-0.0206,-0.0217,-0.0208,-0.0196,-0.0182,-0.0183,-0.0161,-0.0148,-0.0133,-0.0108,-0.0086,-0.0058,-0.0034,-0.0018,-0.002,0.001,-0.0017,-0.0031,0.0007,0.0009,0.001,0.0043,0.0048,-0.0016,-0.0016,-0.0016,0,-0.0223,-0.0234,-0.0217,-0.0223,-0.022,-0.0194,-0.0202,-0.0183,-0.0157,-0.0144,-0.0137,-0.0087,-0.0064,-0.0035,-0.0037,-0.0024,-0.0,-0.0024,0.0004,0.0007,0.0009,0.0042,0.0048,-0.0017,-0.0017,-0.0017,-0.0017,0,-0.0249,-0.0257,-0.0263,-0.0265,-0.0258,-0.0261,-0.0235,-0.0224,-0.0206,-0.0183,-0.0153,-0.0116,-0.0086,-0.0075,-0.0056,-0.003,-0.0017,-0.0005,0.001,0.0008,0.0044,0.005,-0.0019,-0.0019,-0.0018,-0.0018,0,0,-0.0276,-0.0282,-0.0285,-0.0294,-0.028,-0.028,-0.0268,-0.0249,-0.024,-0.0206,-0.0187,-0.0147,-0.0123,-0.0104,-0.0074,-0.0039,-0.0003,-0.002,-0.0017,0.0011,0.0079,0.0074,0.0081,0.0015,0.0016,0.0016,0.0097,0,-0.0304,-0.0331,-0.0321,-0.0343,-0.0355,-0.0326,-0.032,-0.0295,-0.0265,-0.0239,-0.0185,-0.0161,-0.0134,-0.0121,-0.0082,-0.0023,0.0013,-0.0026,0.0078,0.0081,0.0075,0.0088,0.0019,0.0102,0.0103,0.0104,0.0105,0,-0.0331,-0.0347,-0.0377,-0.0386,-0.0388,-0.0397,-0.0381,-0.0369,-0.0317,-0.0292,-0.0247,-0.0204,-0.0147,-0.0128,-0.0022,-0.0048,0.0008,0.0057,0.0061,0.0072,0.0088,0.0105,0.0118,0.0117,0.0116,0.0115,0.0114,0,-0.0363,-0.0385,-0.0414,-0.0416,-0.0421,-0.0428,-0.0428,-0.0391,-0.038,-0.0326,-0.0309,-0.0231,-0.0193,-0.0109,-0.0008,-0.0015,0.0112,0.0117,0.0169,0.0169,0.0163,0.0161,0.019,0.0189,0.0189,0.0189,0.0189,0,-0.0392,-0.0416,-0.0437,-0.0454,-0.049,-0.0472,-0.0491,-0.0471,-0.0436,-0.0421,-0.0346,-0.0313,-0.0187,-0.0097,-0.001,0.0102,0.0113,0.0169,0.0191,0.0148,0.0142,0.0168,0.0164,0.0192,0.0191,0.0191,0.019,0,-0.042,-0.0432,-0.0471,-0.0495,-0.051,-0.0535,-0.0549,-0.0551,-0.0513,-0.0488,-0.0473,-0.0367,-0.0248,-0.0117,0.0031,0.0095,0.0204,0.024,0.0186,0.0203,0.0236,0.023,0.0302,0.0302,0.0303,0.0303,0.0304,0,-0.0436,-0.0459,-0.0512,-0.0546,-0.0566,-0.0599,-0.062,-0.0598,-0.059,-0.0519,-0.0506,-0.0388,-0.0304,-0.0093,0.0036,0.0212,0.0231,0.0282,0.0256,0.0234,0.0248,0.0242,0.0235,0.0304,0.0304,0.0305,0.0305,0,-0.0465,-0.0487,-0.0521,-0.0594,-0.0637,-0.0671,-0.0695,-0.0694,-0.0647,-0.0617,-0.0518,-0.0397,-0.0258,-0.0094,0.005,0.017,0.0246,0.0287,0.0287,0.0263,0.0238,0.025,0.0243,0.0306,0.0306,0.0306,0.0306,0,-0.0486,-0.0522,-0.0573,-0.0631,-0.0689,-0.0722,-0.0731,-0.0707,-0.0688,-0.0596,-0.0565,-0.0404,-0.0303,-0.0115,0.0013,0.0138,0.016,0.0185,0.019,0.0189,0.013,0.0081,0.0123,0,0,0,0,0,-0.0501,-0.0543,-0.0606,-0.0667,-0.0721,-0.0748,-0.0767,-0.0757,-0.0713,-0.0648,-0.06,-0.0464,-0.0252,-0.016,-0.0035,0.0003,0.0167,0.015,0.0194,0.0315,0.0313,0.0261,0,0,0,0,0,0,-0.0513,-0.0574,-0.0606,-0.0677,-0.0721,-0.077,-0.0781,-0.0754,-0.0706,-0.0646,-0.0531,-0.0449,-0.0245,-0.032,-0.0037,0.0002,0.0041,0.0257,0.0259,0.0316,0.0314,0.0313,0.0259,0,0,0,0,0]}]]